• In Belgien
  • Länderverzeichnis
  • Für 7 Tage
  • Wassertemperatur
  • Satellitenkarten
  • Wetterkarte
  • Widgets
  • user-avatar
    Anmelden

    Stündliche Wetter Polyana

    Heute, 21 Mai, Montag

    Zeit Temperatur Niederschläge Wind Luftdruck Luftfeuchtigkeit
    00:00 +8°C° 0 mm 1 m/S 755 mmHg 72%
    01:00 +8°C° 0 mm 1 m/S 756 mmHg 73%
    02:00 +7°C° 0 mm 1 m/S 756 mmHg 80%
    03:00 +8°C° 0 mm 1 m/S 756 mmHg 78%
    04:00 +9°C° 0 mm 1 m/S 757 mmHg 75%
    05:00 +9°C° 0 mm 1 m/S 757 mmHg 73%
    06:00 +12°C° 0 mm 1 m/S 757 mmHg 65%
    07:00 +15°C° 0 mm 1 m/S 757 mmHg 57%
    08:00 +19°C° 0 mm 1 m/S 758 mmHg 48%
    09:00 +20°C° 0 mm 1 m/S 758 mmHg 43%
    10:00 +22°C° 0 mm 1 m/S 758 mmHg 39%
    11:00 +23°C° 0 mm 1 m/S 758 mmHg 35%
    12:00 +24°C° 0 mm 1 m/S 758 mmHg 34%
    13:00 +24°C° 0 mm 1 m/S 757 mmHg 33%
    14:00 +24°C° 0 mm 1 m/S 757 mmHg 33%
    15:00 +23°C° 0 mm 1 m/S 757 mmHg 35%
    16:00 +23°C° 0 mm 1 m/S 757 mmHg 37%
    17:00 +23°C° 0 mm 1 m/S 757 mmHg 39%
    18:00 +20°C° 0 mm 1 m/S 757 mmHg 47%
    19:00 +18°C° 0 mm 1 m/S 757 mmHg 56%
    20:00 +15°C° 0 mm 1 m/S 757 mmHg 64%
    21:00 +14°C° 0 mm 1 m/S 757 mmHg 67%
    22:00 +13°C° 0 mm 1 m/S 757 mmHg 70%
    23:00 +12°C° 0 mm 1 m/S 758 mmHg 73%

    Morgen, 22 Mai, Dienstag

    Zeit Temperatur Niederschläge Wind Luftdruck Luftfeuchtigkeit
    00:00 +12°C° 0 mm 1 m/S 758 mmHg 75%
    01:00 +11°C° 0 mm 1 m/S 758 mmHg 77%
    02:00 +9°C° 0 mm 0 m/S 758 mmHg 79%
    03:00 +11°C° 0 mm 1 m/S 758 mmHg 78%
    04:00 +12°C° 0 mm 1 m/S 758 mmHg 77%
    05:00 +12°C° 0 mm 1 m/S 758 mmHg 75%
    06:00 +14°C° 0 mm 1 m/S 758 mmHg 67%
    07:00 +16°C° 0 mm 2 m/S 757 mmHg 59%
    08:00 +19°C° 0 mm 2 m/S 757 mmHg 51%
    09:00 +20°C° 0 mm 3 m/S 757 mmHg 47%
    10:00 +21°C° 0 mm 3 m/S 756 mmHg 43%
    11:00 +21°C° 0 mm 4 m/S 756 mmHg 38%
    12:00 +21°C° 0 mm 4 m/S 755 mmHg 39%
    13:00 +21°C° 0 mm 4 m/S 755 mmHg 40%
    14:00 +21°C° 0 mm 4 m/S 755 mmHg 41%
    15:00 +20°C° 0 mm 3 m/S 754 mmHg 47%
    16:00 +19°C° 0 mm 2 m/S 754 mmHg 54%
    17:00 +18°C° 0 mm 2 m/S 753 mmHg 60%
    18:00 +17°C° 0,1 mm 2 m/S 753 mmHg 67%
    19:00 +16°C° 0,1 mm 2 m/S 753 mmHg 74%
    20:00 +15°C° 0,1 mm 2 m/S 753 mmHg 82%
    21:00 +15°C° 0,1 mm 2 m/S 752 mmHg 86%
    22:00 +14°C° 0,1 mm 2 m/S 752 mmHg 90%
    23:00 +14°C° 0,1 mm 2 m/S 752 mmHg 94%

    übermorgen, 23 Mai, Mittwoch

    Zeit Temperatur Niederschläge Wind Luftdruck Luftfeuchtigkeit
    00:00 +14°C° 0 mm 2 m/S 752 mmHg 95%
    01:00 +13°C° 0 mm 2 m/S 752 mmHg 97%
    02:00 +13°C° 0 mm 2 m/S 752 mmHg 98%
    03:00 +13°C° 0 mm 2 m/S 752 mmHg 97%
    04:00 +13°C° 0 mm 2 m/S 752 mmHg 96%
    05:00 +13°C° 0 mm 2 m/S 752 mmHg 95%
    06:00 +14°C° 0 mm 2 m/S 752 mmHg 89%
    07:00 +16°C° 0 mm 2 m/S 752 mmHg 83%
    08:00 +17°C° 0 mm 2 m/S 752 mmHg 77%
    09:00 +18°C° 0 mm 2 m/S 751 mmHg 72%
    10:00 +19°C° 0 mm 3 m/S 751 mmHg 67%
    11:00 +20°C° 0 mm 3 m/S 751 mmHg 62%
    12:00 +20°C° 0,3 mm 2 m/S 751 mmHg 61%
    13:00 +21°C° 0,3 mm 2 m/S 751 mmHg 60%
    14:00 +21°C° 0,3 mm 2 m/S 750 mmHg 59%
    15:00 +20°C° 1,5 mm 2 m/S 750 mmHg 67%
    16:00 +20°C° 1,5 mm 1 m/S 750 mmHg 76%
    17:00 +19°C° 1,5 mm 1 m/S 750 mmHg 84%
    18:00 +18°C° 0,4 mm 1 m/S 750 mmHg 87%
    19:00 +16°C° 0,4 mm 1 m/S 750 mmHg 89%
    20:00 +15°C° 0,4 mm 1 m/S 750 mmHg 91%
    21:00 +14°C° 0,1 mm 1 m/S 750 mmHg 92%
    22:00 +13°C° 0,1 mm 1 m/S 750 mmHg 94%
    23:00 +13°C° 0,1 mm 1 m/S 750 mmHg 95%

    24 Mai, Donnerstag

    Zeit Temperatur Niederschläge Wind Luftdruck Luftfeuchtigkeit
    00:00 +12°C° 0 mm 1 m/S 751 mmHg 95%
    01:00 +12°C° 0 mm 2 m/S 751 mmHg 96%
    02:00 +10°C° 0 mm 2 m/S 751 mmHg 96%
    03:00 +10°C° 0 mm 2 m/S 751 mmHg 95%
    04:00 +12°C° 0 mm 2 m/S 752 mmHg 95%
    05:00 +12°C° 0 mm 2 m/S 752 mmHg 94%
    06:00 +14°C° 0 mm 2 m/S 752 mmHg 89%
    07:00 +15°C° 0 mm 2 m/S 752 mmHg 84%
    08:00 +17°C° 0 mm 3 m/S 753 mmHg 79%
    09:00 +17°C° 0,2 mm 3 m/S 753 mmHg 76%
    10:00 +18°C° 0,2 mm 3 m/S 753 mmHg 74%
    11:00 +18°C° 0,2 mm 4 m/S 753 mmHg 71%
    12:00 +18°C° 0,1 mm 4 m/S 754 mmHg 70%
    13:00 +17°C° 0,1 mm 4 m/S 754 mmHg 69%
    14:00 +17°C° 0,1 mm 4 m/S 754 mmHg 68%
    15:00 +17°C° 0 mm 4 m/S 754 mmHg 62%
    16:00 +17°C° 0 mm 4 m/S 754 mmHg 56%
    17:00 +18°C° 0 mm 4 m/S 755 mmHg 50%
    18:00 +16°C° 0 mm 3 m/S 755 mmHg 54%
    19:00 +13°C° 0 mm 3 m/S 756 mmHg 57%
    20:00 +11°C° 0 mm 3 m/S 756 mmHg 60%
    21:00 +10°C° 0 mm 3 m/S 757 mmHg 59%
    22:00 +9°C° 0 mm 3 m/S 757 mmHg 58%
    23:00 +8°C° 0 mm 3 m/S 758 mmHg 57%

    25 Mai, Freitag

    Zeit Temperatur Niederschläge Wind Luftdruck Luftfeuchtigkeit
    00:00 +7°C° 0 mm 3 m/S 758 mmHg 59%
    01:00 +5°C° 0 mm 3 m/S 758 mmHg 61%
    02:00 +5°C° 0 mm 2 m/S 759 mmHg 63%
    03:00 +6°C° 0 mm 2 m/S 759 mmHg 62%
    04:00 +6°C° 0 mm 2 m/S 759 mmHg 62%
    05:00 +6°C° 0 mm 2 m/S 760 mmHg 61%
    06:00 +8°C° 0 mm 3 m/S 760 mmHg 55%
    07:00 +10°C° 0 mm 3 m/S 760 mmHg 48%
    08:00 +11°C° 0 mm 3 m/S 760 mmHg 41%
    09:00 +12°C° 0 mm 4 m/S 760 mmHg 39%
    10:00 +13°C° 0 mm 4 m/S 760 mmHg 37%
    11:00 +14°C° 0 mm 4 m/S 760 mmHg 34%
    12:00 +15°C° 0 mm 4 m/S 760 mmHg 34%
    13:00 +17°C° 0 mm 4 m/S 760 mmHg 34%
    14:00 +17°C° 0 mm 4 m/S 760 mmHg 34%
    15:00 +17°C° 0 mm 3 m/S 760 mmHg 35%
    16:00 +17°C° 0 mm 3 m/S 760 mmHg 36%
    17:00 +17°C° 0 mm 3 m/S 759 mmHg 38%
    18:00 +15°C° 0 mm 2 m/S 760 mmHg 46%
    19:00 +13°C° 0 mm 1 m/S 760 mmHg 54%
    20:00 +11°C° 0 mm 1 m/S 760 mmHg 63%
    21:00 +11°C° 0 mm 1 m/S 760 mmHg 64%
    22:00 +10°C° 0 mm 1 m/S 760 mmHg 66%
    23:00 +9°C° 0 mm 1 m/S 760 mmHg 67%

    26 Mai, Samstag

    Zeit Temperatur Niederschläge Wind Luftdruck Luftfeuchtigkeit
    00:00 +9°C° 0 mm 1 m/S 760 mmHg 68%
    01:00 +9°C° 0 mm 1 m/S 761 mmHg 69%
    02:00 +8°C° 0 mm 1 m/S 761 mmHg 70%
    03:00 +9°C° 0 mm 1 m/S 761 mmHg 69%
    04:00 +8°C° 0 mm 2 m/S 761 mmHg 68%
    05:00 +9°C° 0 mm 2 m/S 761 mmHg 67%
    06:00 +12°C° 0 mm 2 m/S 761 mmHg 61%
    07:00 +14°C° 0 mm 3 m/S 761 mmHg 55%
    08:00 +17°C° 0 mm 3 m/S 761 mmHg 48%
    09:00 +19°C° 0 mm 3 m/S 761 mmHg 45%
    10:00 +20°C° 0 mm 4 m/S 760 mmHg 41%
    11:00 +21°C° 0 mm 4 m/S 760 mmHg 38%
    12:00 +22°C° 0 mm 4 m/S 760 mmHg 38%
    13:00 +23°C° 0 mm 4 m/S 759 mmHg 37%
    14:00 +23°C° 0 mm 4 m/S 759 mmHg 37%
    15:00 +23°C° 0 mm 4 m/S 759 mmHg 40%
    16:00 +23°C° 0 mm 4 m/S 759 mmHg 42%
    17:00 +22°C° 0 mm 4 m/S 758 mmHg 45%
    18:00 +20°C° 0 mm 3 m/S 758 mmHg 53%
    19:00 +18°C° 0 mm 3 m/S 758 mmHg 60%
    20:00 +16°C° 0 mm 2 m/S 758 mmHg 68%
    21:00 +15°C° 0 mm 2 m/S 758 mmHg 70%
    22:00 +14°C° 0 mm 2 m/S 758 mmHg 72%
    23:00 +13°C° 0 mm 2 m/S 758 mmHg 74%
    Mehr zeigen